Regional Weather Roundup
Issued by NWS

Home | Current Version | Previous Version | Graphics & Text | Print | Product List | Glossary On
Versions: 1 2 3 4 5 6 7 8 9 10 11 12 13 14 15 16 17 18 19 20 21 22 23 24 25 26 27 28 29 30 31 32 33 34 35 36 37 38 39 40 41 42 43 44 45 46 47 48 49 50
000
ASUS43 KMPX 291501
RWRMN
WEATHER ROUNDUP FOR MINNESOTA
NATIONAL WEATHER SERVICE TWIN CITIES/CHANHASSEN MN
1000 AM CDT MON JUN 29 2015


NOTE: "FAIR" INDICATES FEW OR NO CLOUDS BELOW 12,000 FEET WITH NO
SIGNIFICANT WEATHER AND/OR OBSTRUCTIONS TO VISIBILITY. N/A MEANS
CURRENT SKY AND/OR WEATHER CONDITIONS ARE NOT AVAILABLE.

MNZ060>063-068>070-291600-
   Twin Cities Metro

CITY           SKY/WX    TMP DP  RH WIND       PRES   REMARKS
TWIN CITIES    SUNNY     76  64  66 W8        29.84R
ST PAUL        SUNNY     75  64  68 NW6       29.83S
CRYSTAL        SUNNY     76  64  66 VRB6      29.82S
BLAINE         SUNNY     75  66  73 W7        29.83S
LAKEVILLE      SUNNY     72  66  83 W8        29.85R
EDEN PRAIRIE   SUNNY     75  64  68 NW8       29.83S
SOUTH ST PAUL  SUNNY     75  64  67 W3        29.83S
LAKE ELMO      FAIR      73  64  73 NW5       29.84S
$$
MNZ001>005-007-008-013>017-022>024-027-028-291600-
   Northwest Minnesota

CITY           SKY/WX    TMP DP  RH WIND       PRES   REMARKS
BEMIDJI        MOSUNNY   71  62  74 NW10      29.83R
HALLOCK        SUNNY     68  63  83 N9        29.83S
ROSEAU         SUNNY     72  64  78 N3        29.82S
WARROAD        SUNNY     72  63  73 N12       29.83R
THIEF RVR FALL SUNNY     68  61  77 NW8       29.84S
CROOKSTON      SUNNY     70  64  83 NW8       29.84S
FOSSTON        SUNNY     70  61  73 NW7       29.85R
DETROIT LAKES  SUNNY     72  61  68 NW8       29.87F
MOORHEAD       SUNNY     72  63  73 W7        29.86F
PARK RAPIDS    MOSUNNY   74  63  68 W10       29.83F
MAHNOMEN       FAIR      70  62  75 W8        29.85S
$$
MNZ006-009>011-018-025>026-291600-
   North Central Minnesota

CITY           SKY/WX    TMP DP  RH WIND       PRES   REMARKS
BAUDETTE       SUNNY     72  63  73 NW9       29.80R
FLAG ISLAND    SUNNY     70  57  64 N8        29.82S
INTL FALLS     PTSUNNY   68  63  84 NW7       29.79R
WASKISH        SUNNY     72  64  78 W3        29.81R
BIG FORK       MOSUNNY  N/A N/A N/A N6        29.80S
LONGVILLE      MOSUNNY   73  64  73 W3        29.81F
GRAND RAPIDS   MOSUNNY   72  63  73 W5        29.81F
CRANE LAKE     CLOUDY    57  57 100 S2        29.79S
ORR            PTSUNNY   63  59  88 CALM      29.78R
COOK           TSTM      61  57  88 CALM      29.81F
WALKER         FAIR      72  62  69 W8        29.81F
$$
MNZ012-019>021-037-291600-
   Northeast Minnesota

CITY           SKY/WX    TMP DP  RH WIND       PRES   REMARKS
DULUTH         MOSUNNY   74  63  68 NW7       29.79S
ELY            LGT RAIN  64  59  82 W12       29.79R
HIBBING        MOSUNNY   71  63  75 W5        29.79F
EVELETH        MOSUNNY   70  63  78 N9        29.82R THUNDER
DULUTH HARBOR  SUNNY     72  66  83 S7        29.77F
TWO HARBORS    MOSUNNY   73  66  78 W2        29.76S
SILVER BAY     MOSUNNY   72  66  83 S6        29.74F
GRAND MARAIS     N/A     53  49  86 W3        29.74S
G MARAIS ARPRT PTSUNNY   64  57  77 W5        29.78S
$$
MNZ029>031-032-039>041-046>048-054>057-064-291600-
   West Central Minnesota

CITY           SKY/WX    TMP DP  RH WIND       PRES   REMARKS
FERGUS FALLS   SUNNY     66  64  94 W6        29.88R
WHEATON        SUNNY     68  63  83 W8        29.90F
MORRIS         SUNNY     72  64  78 NW7       29.88S
ALEXANDRIA     SUNNY     73  63  70 W10       29.88F
ELBOW LAKE     FAIR      67  64  90 NW7       29.88S
WADENA         SUNNY     72  63  73 W9        29.85S
GLENWOOD       SUNNY     72  64  78 W10       29.88S
APPLETON       SUNNY     72  63  73 NW8       29.88S
BENSON         SUNNY     72  63  73 N8        29.89S
ORTONVILLE     SUNNY     72  63  73 W6        29.90S
MADISON        SUNNY     73  61  64 NW8       29.90S
WILLMAR        FAIR      72  66  83 W8        29.89S
$$
MNZ033>034-036-042>043-049>051-058-059-291600-
   Central Minnesota

CITY           SKY/WX    TMP DP  RH WIND       PRES   REMARKS
ST CLOUD       SUNNY     75  63  66 NW8       29.84S
SAUK CENTRE    FAIR      74  65  74 W3        29.86F
PAYNESVILLE    SUNNY     72  64  76 SW7       29.87S
AITKIN         MOSUNNY   73  64  73 CALM      29.81S
PINE RIVER     SUNNY     73  63  68 W7        29.86S
BRAINERD       SUNNY     74  62  66 NW7       29.83F
STAPLES        SUNNY     73  61  64 W9        29.84F
LONG PRAIRIE   FAIR      73  63  68 W6        29.87S
LITTLE FALLS   SUNNY     73  61  64 NW6       29.84S
LITCHFIELD     SUNNY     77  66  69 NW8       29.87S
BUFFALO        SUNNY     74  64  70 W5        29.85S
MAPLE LAKE     SUNNY     75  67  76 W6        29.86S
$$
MNZ037-044-045-052-053-291600-
   East Central Minnesota

CITY           SKY/WX    TMP DP  RH WIND       PRES   REMARKS
PRINCETON      SUNNY     75  64  69 NW6       29.83F
MORA           SUNNY     73  63  68 NW8       29.84S
CAMBRIDGE      SUNNY     75  63  64 W6        29.81S
MOOSE LAKE     SUNNY     72  68  88 NW5       29.79S
HINCKLEY       FAIR      73  64  73 W5        29.81S
CLOQUET        SUNNY     72  63  73 W8        29.80S
MCGREGOR       SUNNY     72  63  73 NW6       29.82S
$$
MNZ071>073-080-081-089-090-097-098-291600-
   Southwest Minnesota

CITY           SKY/WX    TMP DP  RH WIND       PRES   REMARKS
MONTEVIDEO     SUNNY     72  66  83 NW5       29.90S
GRANITE FALLS  SUNNY     70  64  80 W10       29.91S
CANBY          SUNNY     73  64  72 W7        29.92S
MARSHALL       SUNNY     73  61  64 NW8       29.91S
REDWOOD FALLS  SUNNY     73  64  73 W8        29.88S
OLIVIA         SUNNY     72  63  73 NW7       29.87F
PIPESTONE      SUNNY     72  63  73 NW8       29.95S
WINDOM         SUNNY     72  63  73 NW9       29.92R
WORTHINGTON    SUNNY     73  61  64 NW12      29.94R
JACKSON        SUNNY     73  64  73 NW9       29.92S
TRACY          PTSUNNY   73  65  75 W3        29.92S
SLAYTON        SUNNY     74  62  66 CALM      29.94S
$$
MNZ065>067-074>077-082>085-091>093-291600-
   South Central Minnesota

CITY           SKY/WX    TMP DP  RH WIND       PRES   REMARKS
MANKATO        SUNNY     72  64  78 NW7       29.87S
NEW ULM        SUNNY     72  66  83 W8        29.88S
ST JAMES       SUNNY     73  66  78 NW9       29.90S
FAIRMONT       SUNNY     72  61  68 NW9       29.90R
GLENCOE        SUNNY     76  67  74 NW8       29.86S
FARIBAULT      SUNNY     73  66  78 W6        29.86S
OWATONNA       SUNNY     72  64  78 W7        29.86F
WASECA         SUNNY     72  64  78 NW8       29.88S
ALBERT LEA       N/A     72  66  83 NW5       29.87S
$$
MNZ078>079-086>088-094>096-291600-
   Southeast Minnesota

CITY           SKY/WX    TMP DP  RH WIND       PRES   REMARKS
ROCHESTER      SUNNY     72  65  78 NW8       29.86F
RED WING       MOSUNNY   68  66  94 W3        29.82S
STANTON        SUNNY     72  66  83 W5        29.84R
DODGE CENTER   SUNNY     72  66  83 NW6       29.86S
WINONA         CLOUDY    70  64  83 CALM      29.83F
AUSTIN         SUNNY     72  66  83 NW7       29.86S
PRESTON        SUNNY     70  64  80 NW3       29.86S
$$
ABBREVIATIONS USED IN REMARKS
   TC - TEMPERATURES IN CELSIUS
  WCI - WIND CHILL INDEX
   HX - HEAT INDEX
  VSB - VISIBILITY
$$



USA.gov is the U.S. government's official web portal to all federal, state and local government web resources and services.